Capitol Logistics 2291


KORD
Chicago O'Hare International Airport
Chicago, Illinois, US
KSDF
Louisville International Airport-Standiford Field
Louisville, Kentucky, US

Activity Log

Date Flight Route Aircraft Duration
11/24/2019 CPX2291 DENNT DARCY DREGS DONVE TTH CHERI4 B763 1h 31m
03/25/2018 CPX904 DENNT DARCY DREGS DONVE RAMSE FRIZN3 B744 1h 02m

Route Details

Aircraft Information
Primary: Boeing 747-400BCF
Backup: Boeing 767-300BDSF
Date Restrictions
Between:Nov 16, 2019
Dec 31, 2019
Route Data
Distance: 249nm
Sched. Duration: 1h 14m
Avg. Duration: 1h 16m (+2m)
Times Flown: 2
Recm'd Route: DENNT DARCY DREGS DONVE TTH CHERI4
Planned Altitude: 26,000ft
Origin Wx: KORD 280151Z 34011KT 10SM FEW034 FEW250 M08/M14 A3046 RMK AO2 SLP327 T10831139 $
Dest. Wx: KSDF 280156Z 35014KT 1 1/4SM -SN BR SCT007 OVC014 M01/M02 A3029 RMK AO2 SLP262 SNINCR 1/3 P0002 T10061022
Notes: SEASONAL FLIGHT | UPS SURGE OPS CONTRACT

Financial History
Total Freight: 298,340lbs
Average Load: 149,170lbs/flt
Fuel Used: 46,979lbs
Avg. Fuel Used: 23,490lbs/flt
Fuel Expense: $55,969
Avg. Fuel Expense: $27,985
Avg. Fuel Cost: $1.17/lbs
Total Gross Income: $537,171
Pilot Pay: $218
Total Expenses: $62,456
Total Revenue: $418,076
Average Revenue: $268,585.66